Powrót do katalogu

GALILEO 14

26B

AktywnyNawigacjaMEO
NORAD 41549·PAYLOAD·🇪🇺 EU

Wystrzelony May 24, 2016 z Guiana Space Centre

Loading…

Następne Przeloty (najbliższe 24 godziny)

TLE

ŚwieżeSource: CelesTrak SupGP

Epoka: Sep 13, 2026, 23:59 UTC

1 41549C 16030A   26256.99979167  .00000000  00000+0  00000+0 0  2565
2 41549  55.0750 219.2532 0003867 334.2904  51.8414  1.70473257    10

Śledź GALILEO 14 w czasie rzeczywistym z AllMySat

Download on the App Store